TimeEDT,TemperatureF,Dew PointF,Humidity,Sea Level PressureIn,VisibilityMPH,Wind Direction,Wind SpeedMPH,Gust SpeedMPH,PrecipitationIn,Events,Conditions,WindDirDegrees,DateUTC
12:53 AM,63.0,62.1,97,30.12,7.0,Calm,Calm,-,N/A,,Overcast,0,2013-05-18 04:53:00
1:53 AM,63.0,59.0,87,30.14,10.0,South,5.8,-,N/A,,Mostly Cloudy,180,2013-05-18 05:53:00
2:22 AM,62.6,59.0,88,30.15,10.0,SSE,3.5,-,N/A,,Mostly Cloudy,160,2013-05-18 06:22:00
2:34 AM,62.6,59.0,88,30.14,10.0,Calm,Calm,-,N/A,,Mostly Cloudy,0,2013-05-18 06:34:00
2:53 AM,63.0,59.0,87,30.13,10.0,Calm,Calm,-,N/A,,Mostly Cloudy,0,2013-05-18 06:53:00
3:53 AM,62.1,59.0,90,30.12,10.0,South,4.6,-,N/A,,Mostly Cloudy,190,2013-05-18 07:53:00
4:53 AM,62.1,59.0,90,30.12,10.0,Calm,Calm,-,N/A,,Overcast,0,2013-05-18 08:53:00
5:34 AM,62.6,60.8,94,30.15,6.0,Calm,Calm,-,0.01,Rain,Light Rain,0,2013-05-18 09:34:00
5:53 AM,62.1,60.1,93,30.14,3.0,Calm,Calm,-,0.01,Rain,Light Rain,0,2013-05-18 09:53:00
6:06 AM,62.6,60.8,94,30.16,3.0,Calm,Calm,-,0.01,Rain,Light Rain,0,2013-05-18 10:06:00
6:53 AM,62.1,60.1,93,30.16,2.5,Calm,Calm,-,0.02,Rain,Light Rain,0,2013-05-18 10:53:00
7:53 AM,62.1,60.1,93,30.18,2.5,ENE,4.6,-,0.01,,Overcast,70,2013-05-18 11:53:00
8:00 AM,60.8,59.0,94,30.20,7.0,ENE,4.6,-,N/A,,Overcast,60,2013-05-18 12:00:00
8:53 AM,61.0,59.0,93,30.19,2.5,ENE,3.5,-,N/A,,Overcast,60,2013-05-18 12:53:00
9:11 AM,60.8,59.0,94,30.21,2.5,ENE,3.5,-,N/A,,Overcast,60,2013-05-18 13:11:00
9:39 AM,60.8,59.0,94,30.22,2.5,Calm,Calm,-,N/A,,Overcast,0,2013-05-18 13:39:00
9:53 AM,61.0,57.9,90,30.20,2.5,NE,3.5,-,N/A,,Overcast,40,2013-05-18 13:53:00
10:00 AM,60.8,59.0,94,30.22,9.0,ENE,4.6,-,N/A,,Overcast,60,2013-05-18 14:00:00
10:53 AM,61.0,59.0,93,30.20,6.0,ENE,3.5,-,0.03,Rain,Light Rain,70,2013-05-18 14:53:00
11:20 AM,62.6,59.0,88,30.21,7.0,ENE,4.6,-,0.00,Rain,Light Rain,60,2013-05-18 15:20:00
11:46 AM,62.6,59.0,88,30.22,5.0,NNE,4.6,-,0.00,,Overcast,30,2013-05-18 15:46:00
11:53 AM,62.1,60.1,93,30.21,4.0,NNE,5.8,-,0.00,,Overcast,30,2013-05-18 15:53:00
12:53 PM,62.1,60.1,93,30.20,3.0,NNE,5.8,-,N/A,,Overcast,30,2013-05-18 16:53:00
1:20 PM,62.6,60.8,94,30.21,2.5,NNE,4.6,-,0.02,Rain,Light Rain,30,2013-05-18 17:20:00
1:33 PM,62.6,60.8,94,30.20,3.0,NE,4.6,-,0.02,Rain,Light Rain,50,2013-05-18 17:33:00
1:53 PM,62.1,60.1,93,30.18,4.0,NE,5.8,-,0.02,Rain,Light Rain,50,2013-05-18 17:53:00
2:45 PM,62.6,60.8,94,30.17,5.0,ENE,3.5,-,0.00,,Overcast,70,2013-05-18 18:45:00
3:53 PM,64.0,60.1,87,30.16,5.0,NE,5.8,-,N/A,,Overcast,40,2013-05-18 19:53:00
4:53 PM,63.0,60.1,90,30.16,3.0,ENE,5.8,-,N/A,,Overcast,70,2013-05-18 20:53:00
5:13 PM,62.6,60.8,94,30.17,2.0,ENE,5.8,-,N/A,,Overcast,60,2013-05-18 21:13:00
5:53 PM,62.1,60.1,93,30.16,2.0,ENE,5.8,-,N/A,,Overcast,60,2013-05-18 21:53:00
6:53 PM,63.0,60.1,90,30.15,2.0,NNE,8.1,-,N/A,,Overcast,30,2013-05-18 22:53:00
6:56 PM,62.6,60.8,94,30.16,2.0,NE,10.4,-,N/A,,Overcast,40,2013-05-18 22:56:00
7:44 PM,62.6,60.8,94,30.18,2.0,NE,6.9,-,N/A,,Overcast,40,2013-05-18 23:44:00
7:53 PM,62.1,60.1,93,30.17,2.0,NE,8.1,-,N/A,,Overcast,40,2013-05-18 23:53:00
8:10 PM,60.8,60.8,100,30.18,4.0,NE,4.6,-,N/A,,Overcast,50,2013-05-19 00:10:00
8:53 PM,61.0,60.1,97,30.17,2.5,NE,4.6,-,N/A,,Overcast,50,2013-05-19 00:53:00
9:45 PM,60.8,60.8,100,30.19,1.5,NE,6.9,-,N/A,,Overcast,40,2013-05-19 01:45:00
9:53 PM,61.0,60.1,97,30.19,1.2,NE,6.9,-,N/A,,Overcast,40,2013-05-19 01:53:00
10:53 PM,61.0,60.1,97,30.19,1.8,NNE,4.6,-,0.02,,Overcast,20,2013-05-19 02:53:00
11:01 PM,60.8,60.8,100,30.19,2.0,NNE,4.6,-,N/A,,Overcast,30,2013-05-19 03:01:00
11:26 PM,60.8,60.8,100,30.18,3.0,NE,6.9,-,N/A,,Overcast,40,2013-05-19 03:26:00
11:44 PM,60.8,60.8,100,30.18,2.5,NE,6.9,-,N/A,,Overcast,40,2013-05-19 03:44:00
11:53 PM,61.0,60.1,97,30.17,3.0,NE,5.8,-,N/A,,Overcast,40,2013-05-19 03:53:00